Location: Ferchesar
(52.6477°N, 12.4298°E)
Time: 22:09:00
(UTC+01:00)

TIGRISAT - Pass Details

Date: 18 October 2021
Orbit: 603 x 689 km, 97.7° (Epoch: 30 November)

Event Time Altitude Azimuth Distance (km) Brightness Sun altitude
Rises 18:57:26 0° 28° (NNE) 3,013 ? -8.1°
Reaches altitude 10° 19:00:43 10° 52° (NE) 2,074 ? -8.6°
Maximum altitude 19:03:10 14° 86° (E) 1,780 ? -9.0°
Drops below altitude 10° 19:05:34 10° 119° (ESE) 2,035 ? -9.4°
Sets 19:08:43 0° 144° (SE) 2,918 ? -9.9°
